SCP
0 0 0 0 0 0 0 0 0 0 0 0 0 0 0 0 0 0 0 0 0 0
0 0 0 0 0 0 0 0 0 0 0 0 0 0 0 0 0 0 0 0 0 0
0 0 0 0 0 0 0 0 0 0 0 0 0 0 0 0 0 0 0 0 0 0
0 0 0 0 0 0 0 0 0 0 0 0 0 0 0 0 0 0 0 0 0 0
0 0 0 0 0 0 0 0 0 0 0 0 0 0 0 0 0 0 0 0 0 0
0 0 0 0 0 0 0 0 0 0 0 0 0 0 0 0 0 0 0 0 0 0
0 0 0 0 0 0 0 0 0 0 0 0 0 0 0 0 0 0 0 0 0 0
0 0 0 0 0 0 0 0 0 0 0 0 0 0 0 0 0 0 0 0 0 0
0 0 0 0 0 0 0 0 0 0 0 0 0 0 0 0 0 0 0 0 0 0
0 0 0 0 0 0 0 0 0 0 0 0 0 0 0 0 0 0 0 0 0 0
0 0 0 0 0 0 0 0 0 0 0 0 0 0 0 0 0 0 0 0 0 0
0 0 0 0 0 0 0 0 0 0 0 0 0 0 0 0 0 0 0 0 0 0
0 0 0 0 0 0 0 0 0 0 0 0 0 0 0 0 -0 -0 -0 -0 -0 -0
0 0 0 0 0 0 0 0 0 0 0 -0 -0 -0 -0 0 -0 0 0 0 0 0
Wind_Speed_500mb
35 37 37 36 36 34 35 36 34 36 38 35 38 40 42 44 50 53 53 54 57 59
26 29 32 32 31 33 35 33 34 37 36 37 40 43 41 40 46 51 53 57 58 61
21 19 18 18 17 17 18 19 20 21 23 24 26 28 33 39 44 40 42 47 54 60
20 17 13 10 7 5 6 10 14 17 20 23 26 29 32 35 38 43 48 52 57 60
12 8 4 2 6 10 13 17 22 27 31 34 37 39 42 45 47 49 51 52 53 57
10 10 11 14 19 26 31 33 33 36 39 41 44 49 50 53 54 55 58 58 59 59
12 15 17 19 23 25 32 40 41 40 40 42 42 42 48 52 57 60 61 61 63 64
14 16 23 27 25 28 32 36 37 36 35 36 37 40 45 49 52 55 58 57 56 57
12 14 17 19 22 24 25 27 29 32 34 35 37 39 44 50 54 55 57 60 58 57
9 11 14 16 20 23 26 30 34 37 39 41 42 47 53 57 59 62 62 64 64 67
7 9 13 18 23 28 31 35 39 41 46 50 50 54 59 64 67 68 68 69 72 72
6 11 15 20 25 31 35 40 44 49 53 58 62 65 67 69 74 77 79 79 81 82
10 15 19 25 31 36 42 45 49 52 54 56 59 62 67 70 77 84 88 93 93 90
17 22 27 33 40 43 46 48 50 53 56 60 64 66 67 69 69 73 80 83 88 89
Wind_Direction_500mb
216 221 227 232 238 241 242 244 243 247 249 250 253 257 261 262 261 270 265 266 268 270
217 223 230 234 232 233 241 245 250 252 255 256 259 260 264 273 272 267 272 269 270 273
180 182 186 197 210 226 238 250 260 267 272 274 275 273 272 270 268 272 281 284 283 281
159 162 164 172 182 209 248 268 275 280 283 287 289 287 285 282 280 276 276 274 273 277
134 137 151 239 277 277 277 286 293 295 297 297 295 293 290 286 282 281 278 275 272 271
196 217 246 271 290 300 300 299 297 295 293 293 295 293 290 286 284 279 276 275 272 270
248 271 279 288 294 295 296 300 302 306 309 307 307 307 301 297 295 294 292 288 286 284
272 281 291 296 298 306 311 309 317 320 322 323 319 318 314 309 308 307 307 305 301 297
274 291 294 303 309 312 316 323 322 323 325 326 329 324 322 319 316 315 314 312 311 308
268 288 302 310 316 322 328 330 331 333 332 331 330 327 324 321 319 318 319 316 314 312
278 301 315 321 323 325 327 327 326 325 324 322 324 321 318 319 316 314 314 312 310 308
291 299 308 316 319 321 322 322 322 321 321 322 321 320 318 316 314 312 310 308 306 305
321 322 323 323 324 325 324 323 323 323 324 325 323 322 322 321 319 316 312 310 310 308
320 324 326 328 326 327 328 329 331 331 334 333 332 329 326 325 320 316 313 311 309 306
Wind_Speed_850mb
35 37 37 36 36 34 35 36 34 36 38 35 38 40 42 44 50 53 53 54 57 59
26 29 32 32 31 33 35 33 34 37 36 37 40 43 41 40 46 51 53 57 58 61
21 19 18 18 17 17 18 19 20 21 23 24 26 28 33 39 44 40 42 47 54 60
20 17 13 10 7 5 6 10 14 17 20 23 26 29 32 35 38 43 48 52 57 60
12 8 4 2 6 10 13 17 22 27 31 34 37 39 42 45 47 49 51 52 53 57
10 10 11 14 19 26 31 33 33 36 39 41 44 49 50 53 54 55 58 58 59 59
12 15 17 19 23 25 32 40 41 40 40 42 42 42 48 52 57 60 61 61 63 64
14 16 23 27 25 28 32 36 37 36 35 36 37 40 45 49 52 55 58 57 56 57
12 14 17 19 22 24 25 27 29 32 34 35 37 39 44 50 54 55 57 60 58 57
9 11 14 16 20 23 26 30 34 37 39 41 42 47 53 57 59 62 62 64 64 67
7 9 13 18 23 28 31 35 39 41 46 50 50 54 59 64 67 68 68 69 72 72
6 11 15 20 25 31 35 40 44 49 53 58 62 65 67 69 74 77 79 79 81 82
10 15 19 25 31 36 42 45 49 52 54 56 59 62 67 70 77 84 88 93 93 90
17 22 27 33 40 43 46 48 50 53 56 60 64 66 67 69 69 73 80 83 88 89
Wind_Direction_850mb
216 221 227 232 238 241 242 244 243 247 249 250 253 257 261 262 261 270 265 266 268 270
217 223 230 234 232 233 241 245 250 252 255 256 259 260 264 273 272 267 272 269 270 273
180 182 186 197 210 226 238 250 260 267 272 274 275 273 272 270 268 272 281 284 283 281
159 162 164 172 182 209 248 268 275 280 283 287 289 287 285 282 280 276 276 274 273 277
134 137 151 239 277 277 277 286 293 295 297 297 295 293 290 286 282 281 278 275 272 271
196 217 246 271 290 300 300 299 297 295 293 293 295 293 290 286 284 279 276 275 272 270
248 271 279 288 294 295 296 300 302 306 309 307 307 307 301 297 295 294 292 288 286 284
272 281 291 296 298 306 311 309 317 320 322 323 319 318 314 309 308 307 307 305 301 297
274 291 294 303 309 312 316 323 322 323 325 326 329 324 322 319 316 315 314 312 311 308
268 288 302 310 316 322 328 330 331 333 332 331 330 327 324 321 319 318 319 316 314 312
278 301 315 321 323 325 327 327 326 325 324 322 324 321 318 319 316 314 314 312 310 308
291 299 308 316 319 321 322 322 322 321 321 322 321 320 318 316 314 312 310 308 306 305
321 322 323 323 324 325 324 323 323 323 324 325 323 322 322 321 319 316 312 310 310 308
320 324 326 328 326 327 328 329 331 331 334 333 332 329 326 325 320 316 313 311 309 306